Location: Natural Bridges National Monument
(37.6093°N, 109.9767°W)
Time: 11:43:46
(UTC-06:00)

Daily predictions for brighter satellites

Satellite Brightness Start Highest point End
(mag) Time Altitude Azimuth Time Altitude Azimuth Time Altitude Azimuth
Cosmos 2034 Rocket 4.0 20:20:12 10° S 20:26:23 86° E 20:32:35 10° N
Spot 2 Rocket 3.8 20:23:07 10° SSE 20:28:03 52° ENE 20:32:59 10° N
Cosmos 1980 Rocket 2.2 20:28:30 10° SSW 20:34:07 71° ESE 20:39:48 10° NNE
CZ-2D R/B 3.6 20:30:35 10° SSE 20:34:19 47° ENE 20:38:05 10° N
Helios 1B rocket 3.4 20:32:54 10° NE 20:36:23 26° E 20:39:51 10° SSE
Cosmos 1110 Rocket 4.3 20:31:08 10° SSW 20:36:23 75° WNW 20:41:43 10° NNE
Lacrosse 4 Rocket 3.6 20:34:28 10° NNE 20:36:36 13° NE 20:38:44 10° E
SL-8 R/B 3.8 20:32:05 10° WNW 20:36:56 85° SW 20:41:45 10° SE
Resurs 1-3 3.7 20:33:13 10° SSE 20:37:31 58° ENE 20:41:50 10° N
Lacrosse 5 4.5 20:36:20 10° W 20:38:57 14° WSW 20:41:35 10° SSW
USA 267 4.5 20:33:27 10° NE 20:39:36 45° NW 20:45:45 10° WSW
Cosmos 1825 4.0 20:39:08 10° NE 20:41:21 15° ENE 20:43:21 11° ESE
Cosmos 2227 Rocket 4.0 20:37:42 10° NW 20:42:42 33° WSW 20:47:39 10° SSW
Cosmos 1869 Rocket 3.8 20:38:22 10° N 20:42:45 50° E 20:47:05 10° SSE
Cosmos 1302 Rocket 3.9 20:42:39 10° S 20:47:48 68° ESE 20:52:58 10° NNE
Envisat 3.8 20:43:27 10° SE 20:47:58 34° ENE 20:52:30 10° N
Cosmos 1939 Rocket 4.2 20:45:36 11° ESE 20:48:34 23° ENE 20:51:44 10° NNE
SL-16 R/B 2.9 20:44:32 10° SSE 20:49:26 31° ESE 20:54:20 10° NE
CZ-4B DEB 4.2 20:48:20 13° ESE 20:50:04 20° ENE 20:52:25 10° NNE
GPS 2-04 Rocket1 4.1 20:53:07 10° WSW 20:56:04 23° SSW 20:58:46 12° SSE
ATLAS 5 CENTAUR R/B 4.3 20:58:02 10° N 21:01:35 16° NE 21:05:18 10° ENE
OAO 3 Rocket 3.4 20:58:33 10° WSW 21:03:19 55° S 21:07:08 16° E
SEDSat Delta rocket 4.5 21:00:19 10° SW 21:05:00 31° SSE 21:08:32 17° ESE
Resurs 01 Rocket 2.3 21:01:56 10° S 21:06:16 55° W 21:10:40 10° NNW
GRACE-1 3.9 21:03:45 10° N 21:06:31 75° W 21:09:13 10° S
GRACE-2 3.9 21:04:11 10° N 21:06:56 75° W 21:09:38 10° S
Helios 1A 3.0 21:03:27 11° SSE 21:07:30 62° ENE 21:11:42 10° N
DELTA 2 R/B(2) 4.4 21:04:47 10° W 21:08:46 59° N 21:09:56 23° ENE
SAR-Lupe-4 3.6 21:07:09 15° SSE 21:09:59 61° ENE 21:13:32 10° N
Meteor 2-20 4.4 21:04:41 10° N 21:10:47 67° E 21:16:52 10° SSE
Atlas Centaur 2 3.7 21:06:24 10° SSW 21:12:28 30° SSE 21:16:54 18° ESE
USA 234 3.4 21:07:21 16° ESE 21:12:37 65° NE 21:19:06 10° NW
Cosmos 2227 4.2 21:13:05 10° NNW 21:18:51 82° ENE 21:23:23 17° SSE
ATLAS CENTAUR R/B 3.5 21:18:55 10° WNW 21:21:43 32° SW 21:27:55 10° SSE
Cosmos 1408 2.8 21:19:34 10° N 21:23:11 49° E 21:24:36 31° SE
ERS-1 Rocket 3.7 21:22:11 24° ESE 21:24:26 35° ENE 21:28:59 10° N
ERBS 3.1 21:21:44 10° NNW 21:25:02 40° NE 21:26:03 31° E
Cosmos 2142 Rocket 4.4 21:20:00 10° S 21:26:07 89° E 21:32:18 10° N
Cosmos 1455 3.9 21:22:51 10° SW 21:26:20 34° W 21:29:50 10° NNW
SAR-Lupe-1 4.0 21:25:19 22° SSE 21:27:31 89° E 21:31:07 10° NNW
Cosmos 1486 Rocket 4.3 21:24:38 10° NNW 21:29:50 69° WSW 21:34:21 14° S
Cosmos 1869 3.7 21:26:58 10° SSW 21:30:51 63° W 21:34:46 10° N
OTV 4 2.5 21:32:11 10° WSW 21:34:07 17° SSW 21:34:14 17° SSW
Cosmos 220 Rocket 4.0 21:32:54 10° NNW 21:37:21 74° ENE 21:39:12 34° SSE
SeaSat 1 3.6 21:39:58 24° E 21:41:19 27° NE 21:45:26 10° N
Cosmos 1992 Rocket 3.9 21:36:25 10° S 21:41:35 66° ESE 21:46:47 10° NNE
USA 186 4.2 21:42:59 10° SW 21:44:46 16° W 21:46:39 10° NW
Milstar 3 3.4 21:41:42 10° WSW 21:48:39 38° S 21:50:57 30° SSE
Cosmos 2026 Rocket 4.0 21:43:22 10° N 21:49:37 79° W 21:54:29 17° S
MetOp-A 4.5 21:49:42 37° ESE 21:51:08 46° ENE 21:56:14 10° N
Cosmos 1933 3.2 21:50:28 46° S 21:51:36 76° E 21:55:38 10° N
USA 229 DEB 4.2 21:51:56 34° ESE 21:52:18 34° ESE 21:58:21 10° NE
USA 229 4.2 21:52:12 33° ESE 21:52:24 34° ESE 21:58:26 10° NE
YAOGAN 6 2.4 21:54:41 72° SSE 21:55:01 85° ENE 21:58:41 10° N
DELTA 2 R/B (1) 4.3 21:52:47 10° W 21:58:01 41° SSW 21:59:32 34° S
Cosmos 1503 Rocket 4.1 21:55:46 10° NNW 22:01:01 71° WSW 22:03:11 35° S
Cosmos 1354 Rocket 4.3 21:59:10 10° NNW 22:04:24 65° WSW 22:06:35 34° S
H-2A R/B 3.2 22:04:41 26° ENE 22:04:41 26° ENE 22:08:34 10° NNE
Cosmos 2263 Rocket 2.2 21:59:19 10° NNW 22:04:51 65° ENE 22:06:05 50° ESE
Terra 3.9 22:05:46 14° NE 22:05:46 14° NE 22:07:29 10° NNE
Cosmos 2322 Rocket 2.8 22:00:43 10° SW 22:06:12 55° WNW 22:11:43 10° NNE
STPSAT 2 (USA 217) 4.4 22:05:05 10° NNW 22:09:42 81° ENE 22:10:03 73° SE
Cosmos 1733 Rocket 3.5 22:05:53 10° NNW 22:10:17 61° W 22:11:35 41° SSW
Cosmos 1655 Rocket 4.3 22:05:27 10° NNW 22:11:47 66° W 22:15:50 23° SSW
Cosmos 1862 Rocket 4.3 22:11:07 23° SSW 22:13:43 53° W 22:18:07 10° N
Meteor 2-10 Rocket 3.6 22:11:52 38° S 22:14:11 80° E 22:20:01 10° N
SL-08 RB Rocket 4.4 22:16:00 40° NE 22:16:00 40° NE 22:19:47 10° N
Lacrosse 4 Rocket 1.7 22:11:24 10° NNW 22:15:41 63° WSW 22:16:01 60° SW
Cosmos 1825 3.9 22:13:40 10° NNW 22:17:00 29° W 22:18:16 24° SW
Cosmos 2360 Rocket 2.0 22:15:51 52° SSE 22:17:08 69° ESE 22:22:46 10° NNE
Cosmos 1862 4.2 22:15:22 10° NNW 22:19:13 45° W 22:19:53 41° WSW
Cosmos 397 4.5 22:16:24 10° NNW 22:20:20 73° W 22:20:20 73° W
Cosmos 2322 3.6 22:22:28 65° ESE 22:22:42 65° ESE 22:28:22 10° NNE
NOAA 11 4.1 22:24:37 61° S 22:25:39 86° WSW 22:31:11 10° NNW
Cosmos 968 Rocket 3.6 22:21:27 10° N 22:26:25 57° ENE 22:26:25 57° ENE
YAOGAN 11 4.1 22:27:47 77° NW 22:27:47 77° NW 22:31:54 10° NNW
Okean 1-7 4.5 22:32:09 29° NNE 22:32:09 29° NNE 22:34:26 10° NNE
SL-16 R/B 3.8 22:28:18 10° SW 22:33:24 34° WNW 22:38:32 10° N
Cosmos 1703 Rocket 4.1 22:34:29 54° N 22:34:29 54° N 22:37:57 10° N
SPOT 5 2.8 22:34:04 84° NNW 22:34:04 84° NNW 22:38:41 10° NNW
Cosmos 2266 Rocket 3.9 22:31:10 10° N 22:37:28 85° E 22:38:21 68° SSE
MetOp-B 4.5 22:44:34 54° SW 22:45:08 58° W 22:50:26 10° NNW
OAO 3 Rocket 4.3 22:41:49 10° W 22:44:57 38° WSW 22:44:57 38° WSW
ATLAS 5 CENTAUR R/B 2.3 22:41:07 10° NNW 22:47:14 74° ENE 22:47:28 73° ENE
Nimbus 7 Rocket 4.4 22:45:17 10° N 22:51:13 77° WNW 22:52:11 63° SW
SPOT 1/Viking Rocket 3.7 22:52:06 72° NNW 22:52:06 72° NNW 22:56:46 10° NNW
ARGOS 3.3 22:53:21 64° W 22:53:21 64° W 22:58:40 10° NNW
USA 234 4.3 22:54:42 31° SW 22:55:49 33° SW 23:01:36 10° WNW
Cosmos 2278 Rocket 4.2 22:53:02 10° NNE 22:56:09 16° NE 22:56:09 16° NE
Atlas Centaur 2 3.5 22:54:04 10° WSW 22:59:34 42° SSW 22:59:34 42° SSW
Cosmos 1844 Rocket 3.6 23:03:18 10° N 23:07:24 39° NNE 23:07:24 39° NNE
SeaSat 1 3.8 23:19:46 33° W 23:19:46 33° W 23:23:14 10° NW
H-2A R/B 4.1 23:21:27 25° NNW 23:21:27 25° NNW 23:23:20 10° NNW
Cosmos 2219 Rocket 3.9 23:27:00 23° NE 23:27:00 23° NE 23:29:03 10° NNE
Terra 3.7 23:44:38 28° NNW 23:44:38 28° NNW 23:46:58 10° NNW
H-2A R/B 3.7 23:45:18 27° WNW 23:45:18 27° WNW 23:48:13 10° NW
COSMOS 2428 3.8 23:46:58 41° NNW 23:46:58 41° NNW 23:51:13 10° NNE
Cosmos 2263 Rocket 4.4 23:45:08 10° WNW 23:47:48 15° W 23:47:48 15° W
